Location: Cosy Dell
(34.2789°N, 117.4537°W)
Time: 20:51:26
(UTC+00:00)

Lacrosse 5 rocket - Pass Details

Date: 14 July 2020
Orbit: 465 x 632 km, 57.0° (Epoch: 13 August)

Event Time Altitude Azimuth Distance (km) Brightness Sun altitude
Rises 06:09:01 0° 333° (NNW) 2,694 6.1 -28.6°
Reaches altitude 10° 06:11:44 10° 350° (N) 1,765 4.7 -28.9°
Enters shadow 06:13:50 19° 20° (NNE) 1,277 3.6 -29.1°
